Location: Hurstbourne Priors
(51.2000°N, 1.3667°W)
Time: 19:13:41
(UTC+00:00)

Transit 4A - Pass Details

Date: 22 April 2021
Orbit: 870 x 974 km, 66.8° (Epoch: 09 May)

Event Time Altitude Azimuth Distance (km) Brightness Sun altitude
Rises 08:23:23 0° 318° (NW) 3,518 10.5 31.1°
Reaches altitude 10° 08:26:04 10° 311° (NW) 2,561 9.8 31.5°
Maximum altitude 08:31:25 37° 246° (WSW) 1,340 8.7 32.2°
Drops below altitude 10° 08:36:40 10° 181° (S) 2,513 10.5 33.0°
Sets 08:39:17 0° 173° (S) 3,445 11.3 33.4°
